STARS-ME (43640 NORAD) Tracking and Keplerian Element Data

This shows tracking and keplerian element data for the satellite.

Feedback or suggestion? Click here.




ElementValue
Catalog43640
NameSTARS-ME
Epoch Orbit3126
Epoch Day115.42128939
Epoch Year2019
RAAN259.6128
Inclination51.6382
Eccentricity0.0005365
Argument of Perigee253.7845
Mean Anonmoly106.2557
Mean Motion15.57636909
Decay Rate9.377E-05
L11 43640U 98067PQ 19115.42128939 .00009377 00000-0 13087-3 0 9990
L22 43640 51.6382 259.6128 0005365 253.7845 106.2557 15.57636909 31269

Live tracking and technical data element details for STARS-ME (NORAD 43640). STARS-ME can be tracked NOW for your location showing map with azimuth and elevation plus other details from your city location.

Track the satellite on the map from your city or location and see movement details for azimuth, elevation, latitude, longitude, range, height, and movement on the map or in text.







IsCatalogInMostPopularTable: catalog: 43640, numindb: 124
Update: records affected: 1



GetName: 43640 STARS-ME

Hit Count: updated at: Fri, 26 Apr 2019 16:11:34 GMT